Location: Newark
(46.9000°N, 28.3500°E)
Time: 12:02:17
(UTC+00:00)

Explorer 7 - Pass Details

Date: 31 August 2019
Orbit: 485 x 680 km, 50.3° (Epoch: 16 September)

Event Time Altitude Azimuth Distance (km) Brightness Sun altitude
Rises 03:33:00 0° 205° (SSW) 3,013 10.2 0.6°
Reaches altitude 10° 03:35:41 10° 192° (SSW) 2,109 9.6 1.1°
Maximum altitude 03:39:40 25° 138° (SE) 1,351 9.3 1.7°
Drops below altitude 10° 03:43:38 10° 83° (E) 2,102 12.4 2.4°
Sets 03:46:17 0° 71° (ENE) 3,000 13.0 2.9°
